TimeEDT,TemperatureF,Dew PointF,Humidity,Sea Level PressureIn,VisibilityMPH,Wind Direction,Wind SpeedMPH,Gust SpeedMPH,PrecipitationIn,Events,Conditions,WindDirDegrees,DateUTC
12:54 AM,42.1,28.0,58,30.12,10.0,WNW,4.6,-,N/A,,Partly Cloudy,290,2013-03-31 04:54:00
1:54 AM,41.0,21.0,45,30.12,10.0,Calm,Calm,-,N/A,,Clear,0,2013-03-31 05:54:00
2:54 AM,39.0,23.0,53,30.11,10.0,North,3.5,-,N/A,,Clear,360,2013-03-31 06:54:00
3:54 AM,37.9,24.1,57,30.11,10.0,Calm,Calm,-,N/A,,Clear,0,2013-03-31 07:54:00
4:54 AM,37.0,26.1,65,30.12,10.0,Calm,Calm,-,N/A,,Clear,0,2013-03-31 08:54:00
5:54 AM,37.0,25.0,62,30.12,10.0,Calm,Calm,-,N/A,,Partly Cloudy,0,2013-03-31 09:54:00
6:54 AM,35.6,21.2,56,30.12,10.0,South,3.5,-,N/A,,Scattered Clouds,170,2013-03-31 10:54:00
7:54 AM,39.0,28.9,67,30.13,10.0,Calm,Calm,-,N/A,,Scattered Clouds,0,2013-03-31 11:54:00
8:54 AM,43.0,27.0,53,30.11,10.0,SE,3.5,-,N/A,,Mostly Cloudy,130,2013-03-31 12:54:00
9:54 AM,45.0,24.1,44,30.11,10.0,SE,4.6,-,N/A,,Mostly Cloudy,140,2013-03-31 13:54:00
10:54 AM,50.0,25.0,38,30.10,10.0,ESE,5.8,-,N/A,,Overcast,120,2013-03-31 14:54:00
11:54 AM,48.9,32.0,52,30.09,10.0,East,10.4,-,N/A,,Overcast,80,2013-03-31 15:54:00
12:54 PM,50.0,35.1,57,30.06,10.0,East,10.4,-,N/A,,Overcast,80,2013-03-31 16:54:00
1:54 PM,57.9,24.1,27,30.02,10.0,SSW,13.8,-,N/A,,Overcast,200,2013-03-31 17:54:00
2:54 PM,57.9,26.1,30,29.99,10.0,SSW,23.0,29.9,N/A,,Overcast,200,2013-03-31 18:54:00
3:54 PM,57.0,25.0,29,29.97,10.0,SSW,18.4,-,N/A,,Overcast,200,2013-03-31 19:54:00
4:54 PM,54.0,25.0,33,29.97,10.0,South,23.0,29.9,N/A,,Overcast,190,2013-03-31 20:54:00
5:54 PM,52.0,30.9,45,29.97,10.0,SSW,21.9,32.2,N/A,,Overcast,200,2013-03-31 21:54:00
6:54 PM,51.1,32.0,48,29.96,10.0,SSW,16.1,-,N/A,,Overcast,200,2013-03-31 22:54:00
7:54 PM,50.0,35.1,57,29.96,10.0,South,18.4,23.0,N/A,,Overcast,180,2013-03-31 23:54:00
8:54 PM,48.0,36.0,63,29.92,10.0,SSE,9.2,-,0.00,,Overcast,160,2013-04-01 00:54:00
9:54 PM,48.0,34.0,58,29.88,10.0,SSE,11.5,-,N/A,,Overcast,150,2013-04-01 01:54:00
10:54 PM,46.9,36.0,66,29.83,10.0,SSE,13.8,24.2,0.00,Rain,Light Rain,150,2013-04-01 02:54:00
11:54 PM,46.0,39.0,76,29.77,9.0,SE,15.0,-,0.01,Rain,Rain,140,2013-04-01 03:54:00